Airfield :
LOGIN :

Register | Disclaimer

   EN    FR    IT 

 










Legend :    VFR   Marginal VFR   IFR   Intensive IFR   Very Intensive IFR
Visi :
Ceiling :
>= 8 km
>= 3000ft
5 to 8 km
1000 to 3000 ft
1500m to 5 km
500 to 1000 ft
800 to 1500m
200 to 500 ft
< 800m
< 200 ft
Symbols :   Thunderstorms  Fog  Heavy snow  Heavy precipitations  Wind > 20 kt
SIGMETs :     Misc.  Thunderstorms  Icing  Turbulence  Mountain Waves  Volcanic Ashes







- Airport Elevation : 479 ft
- IATA code : DOL
- Download approach charts


LFRG - Deauville

CURRENT METAR :
  • 161100Z AUTO 22005KT CAVOK 12/04 Q1026 NOSIG

EXPIRED METARs :
  • 161030Z AUTO 20005KT 150V240 CAVOK 11/04 Q1026 NOSIG
  • 161000Z AUTO 19006KT CAVOK 10/04 Q1026 NOSIG
  • 160930Z AUTO 19006KT 160V220 CAVOK 09/04 Q1026 NOSIG
  • 160900Z AUTO 18008KT CAVOK 08/04 Q1026 NOSIG
  • 160830Z AUTO 19006KT CAVOK 07/04 Q1026 NOSIG

TAF TAF LFRG
Valid from the 16 at 09:00 until the 16 at 18:00 UTC


160800Z 1609/1618 18005KT CAVOK
ATIS : +33 2 31 65 65 36
No reported NOTAMs for that airfield.



MET'MAP, your aeronautical weather chart ! - Copyright ORBIFLY December 2007 - Disclaimer

ORBIFLY MET'MAP TEAM :

Programming & Development : Alexandra Zaïnal
Concept & Development : Baudouin d'Aumeries
Co-Development & Prog : Marc-Olivier Méhu
Technical & hardware support : Manuel Goepfert

Contact : metmap@orbifly.com




SOURCES & CREDITS :

   NOAA